sat.trackr.live / text

‹ back to catalog

UNKNOWN

NORAD 87541

UNKNOWN UNKNOWN UNKNOWN

§ Identity

Operator
Country
Launch date
Launch site
Launch vehicle
Mass (kg)
RCS (m²)

External: N2YO · Heavens-Above

§ Orbital elements

Epoch: 2026-09-16T18:52:53.180832Z

Period
107.81 min
Inclination
99.6734°
Eccentricity
0.0059388
Mean motion
13.35679452 rev/d
Perigee alt
1,080.9 km
Apogee alt
1,170.0 km
Semi-major
7,503.6 km
B*
2.3814e-4
RAAN
104.3866°
Arg perigee
310.2517°
Mean anomaly
113.6971°
Rev number
61,915

§ Raw data

UNKNOWN1 87541U          26259.78672663  .00000080  00000+0  23814-3 0  99922 87541  99.6734 104.3866 0059388 310.2517 113.6971 13.35679452619150

JSON: /api/v1/satellites/87541 · /tle

For live sub-satellite position, see the globe view (requires WebGL).

§ Visibility from observer

Set your observer location to see the next 7 days of passes ≥ 10°. The values pass through the URL so the page stays shareable.

No JS? Fill the form by hand. The geolocation button needs JavaScript.